Location: Amsterdam
(30.7274°N, 84.4357°W)
Time: 11:50:54
(UTC+00:00)

Tiros 1 - Pass Details

Date: 19 February 2026
Orbit: 618 x 650 km, 48.4° (Epoch: 16 March)

Event Time Altitude Azimuth Distance (km) Brightness Sun altitude
Rises 18:40:03 0° 322° (NW) 2,889 10.3 46.6°
Reaches altitude 10° 18:42:54 10° 339° (NNW) 1,979 9.4 46.4°
Maximum altitude 18:46:15 20° 27° (NNE) 1,440 8.7 46.2°
Drops below altitude 10° 18:49:35 10° 74° (ENE) 1,974 9.5 45.9°
Sets 18:52:25 0° 92° (E) 2,879 10.3 45.7°
